Date,TemperatureHighF,TemperatureAvgF,TemperatureLowF,DewpointHighF,DewpointAvgF,DewpointLowF,HumidityHigh,HumidityAvg,HumidityLow,PressureMaxIn,PressureMinIn,WindSpeedMaxMPH,WindSpeedAvgMPH,GustSpeedMaxMPH,PrecipitationSumIn
2013-3-1,39.0,31.0,28.0,-99.9,-99.9,-99.9,90,83,72,0.00,40.00,0,-999,0,0.00
2013-3-2,42.0,31.8,21.0,-99.9,-99.9,-99.9,87,74,51,0.00,40.00,0,-999,0,0.00
2013-3-3,36.0,31.2,25.0,-99.9,-99.9,-99.9,86,80,73,0.00,40.00,0,-999,0,0.00
2013-3-4,46.0,31.8,20.0,-99.9,-99.9,-99.9,89,73,57,0.00,40.00,0,-999,0,0.00
2013-3-5,41.0,33.7,26.0,-99.9,-99.9,-99.9,86,71,58,0.00,40.00,0,-999,0,0.00
2013-3-6,50.0,36.8,25.0,-99.9,-99.9,-99.9,90,73,48,0.00,40.00,0,-999,0,0.00
2013-3-7,47.0,38.3,33.0,-99.9,-99.9,-99.9,92,86,77,0.00,40.00,0,-999,0,0.00
2013-3-8,48.0,40.2,36.0,-99.9,-99.9,-99.9,94,90,81,0.00,40.00,0,-999,0,0.00
2013-3-9,41.0,38.6,37.0,-99.9,-99.9,-99.9,95,94,93,0.00,40.00,0,-999,0,0.00
2013-3-10,50.0,40.1,34.0,-99.9,-99.9,-99.9,95,88,70,0.00,40.00,0,-999,0,0.00
2013-3-11,33.0,26.8,23.0,-99.9,-99.9,-99.9,87,81,74,0.00,40.00,0,-999,0,0.00
2013-3-12,24.0,22.6,21.0,-99.9,-99.9,-99.9,90,88,84,0.00,40.00,0,-999,0,0.00
2013-3-13,28.0,22.2,18.0,-99.9,-99.9,-99.9,89,80,72,0.00,40.00,0,-999,0,0.00
2013-3-14,39.0,23.7,9.0,-99.9,-99.9,-99.9,86,73,51,0.00,40.00,0,-999,0,0.00
2013-3-15,34.0,22.7,12.0,-99.9,-99.9,-99.9,87,75,58,0.00,40.00,0,-999,0,0.00
2013-3-16,39.0,23.7,8.0,-99.9,-99.9,-99.9,82,66,51,0.00,40.00,0,-999,0,0.00
2013-3-17,35.0,28.4,21.0,-99.9,-99.9,-99.9,73,63,52,0.00,40.00,0,-999,0,0.00
2013-3-18,31.0,27.9,25.0,-99.9,-99.9,-99.9,91,84,73,0.00,40.00,0,-999,0,0.00
2013-3-19,37.0,31.5,27.0,-99.9,-99.9,-99.9,91,87,81,0.00,40.00,0,-999,0,0.00
2013-3-20,43.0,35.7,32.0,-99.9,-99.9,-99.9,93,86,72,0.00,40.00,0,-999,0,0.00
2013-3-21,39.0,30.2,24.0,-99.9,-99.9,-99.9,93,83,73,0.00,40.00,0,-999,0,0.00
2013-3-22,39.0,25.8,21.0,-99.9,-99.9,-99.9,84,76,64,0.00,40.00,0,-999,0,0.00
2013-3-23,26.0,22.1,16.0,-99.9,-99.9,-99.9,87,75,63,0.00,40.00,0,-999,0,0.00
2013-3-24,28.0,23.5,16.0,-99.9,-99.9,-99.9,67,52,43,0.00,40.00,0,-999,0,0.00
2013-3-25,29.0,22.5,17.0,-99.9,-99.9,-99.9,71,63,51,0.00,40.00,0,-999,0,0.00
2013-3-26,30.0,24.6,21.0,-99.9,-99.9,-99.9,69,54,39,0.00,40.00,0,-999,0,0.00
2013-3-27,26.0,23.0,19.0,-99.9,-99.9,-99.9,87,73,60,0.00,40.00,0,-999,0,0.00
2013-3-28,33.0,27.0,23.0,-99.9,-99.9,-99.9,88,82,69,0.00,40.00,0,-999,0,0.00
2013-3-29,37.0,30.6,28.0,-99.9,-99.9,-99.9,91,81,68,0.00,40.00,0,-999,0,0.00
2013-3-30,41.0,31.3,27.0,-99.9,-99.9,-99.9,87,75,55,0.00,40.00,0,-999,0,0.00
2013-3-31,36.0,29.1,26.0,-99.9,-99.9,-99.9,85,73,61,0.00,40.00,0,-999,0,0.00